Location: Sherrills_Ford_Terrell
(35.6000°N, 80.9830°W)
Time: 00:17:31
(UTC-04:00)

ISS - Visible Passes

Search period start: 02 August 2015 00:00
Search period end: 12 August 2015 00:00
Orbit: 401 x 403 km, 51.6° (Epoch: 01 August)

Date Brightness Start Highest point End Pass type
(mag) Time Alt. Az. Time Alt. Az. Time Alt. Az.
02 Aug -2.1 04:42:22 32° SE 04:42:22 32° SE 04:44:14 10° SE visible
02 Aug -2.3 21:14:52 10° WSW 21:18:02 50° NW 21:21:13 10° NE visible
03 Aug -0.1 21:59:55 10° WNW 22:01:48 14° NNW 22:03:38 10° N visible
04 Aug -0.7 21:05:52 10° W 21:08:33 23° NNW 21:11:12 10° NNE visible
06 Aug -0.2 20:57:36 10° NW 20:59:10 13° NNW 21:00:42 10° N visible
11 Aug 0.0 23:01:25 10° N 23:01:36 10° N 23:01:36 10° N visible
